Starlink 6291

operational
NORAD ID: 56547 Int'l Des: 2023-065 Owner: SPXS Country: US Constellation: starlink
LEOCIRCULAR

Starlink 6291について

説明を読み込み中...

リアルタイム位置

3D地球を読み込み中...

次回通過

高度履歴

Altitude vs Time

uPlot chart will show altitude changes over time

軌道要素

1 56547U 23065AW 26062.16668981 .00012590 00000-0 89047-3 0 9992
2 56547 42.9999 258.1884 0001265 245.6388 9.2135 15.04793594 5818
Epoch: Mar 3, 2026 • Age: 17 hours

現在のステータス

高度 552.4 km
速度 7.59 km/s
衛星直下点 -1.73°S, 166.14°W
打ち上げ日 May 14, 2023
運用期間 2.8 years
タイプ internet

技術仕様

分類 Payload
質量 305.00 kg
乾燥質量 290.00 kg
総質量 305.00 kg
長さ 0.20 m
直径 2.80 m
スパン 9.00 m
形状 Box + pan
製造者 SPXS
バスタイプ Starlink
フェーズステータス In Orbit
所有者/国 SPXS/US

大規模コンステレーション

Loading constellations...